EW7665 Weather Reports


Display with metric or nautical units.
time (UTC)temp
F
wind
direction
speed
MPH
gust
MPH
rain 1hr
in
rain 24hr
in
rain mn
in
humidity
%
barometer
mb
20260505123113 48 88 3.0 3.0 0.04 0.04 0.04 66 1010.9
20260505121550 49 78 4.0 4.0 0.04 0.04 0.04 66 1010.7
20260505120112 51 52 0.0 1.0 0.02 0.02 0.02 66 1011.0
20260505114555 51 0 0.0 2.0 0.00 0.00 0.00 49 1010.4
20260505113051 53 78 4.0 4.0 0.00 0.00 0.00 49 1010.0
20260505111550 54 74 1.0 1.0 0.00 0.00 0.00 49 1010.1
20260505110108 54 105 8.0 8.0 0.00 0.00 0.00 47 1008.7
20260505101601 54 144 7.0 7.0 0.00 0.00 0.00 45 1008.3
20260505100057 54 25 1.0 5.0 0.00 0.00 0.00 45 1008.5
20260505094553 54 66 4.0 6.0 0.00 0.00 0.00 45 1008.6
20260505093054 55 81 1.0 5.0 0.00 0.00 0.00 43 1008.5
20260505091557 55 96 4.0 8.0 0.00 0.00 0.00 43 1008.5
20260505090057 55 80 3.0 7.0 0.00 0.00 0.00 43 1008.6
20260505084600 55 94 6.0 7.0 0.00 0.00 0.00 44 1008.1
20260505083104 56 96 3.0 3.0 0.00 0.00 0.00 44 1008.8
20260505081548 56 78 2.0 2.0 0.00 0.00 0.00 44 1008.7
20260505080054 56 72 3.0 7.0 0.00 0.00 0.00 42 1008.7
20260505074551 56 79 7.0 10.0 0.00 0.00 0.00 42 1008.0
20260505073058 57 64 4.0 10.0 0.00 0.00 0.00 42 1007.5
20260505071551 57 100 4.0 5.0 0.00 0.00 0.00 43 1007.4
20260505070057 57 75 2.0 5.0 0.00 0.00 0.00 43 1007.5
20260505064615 58 90 4.0 6.0 0.00 0.00 0.00 42 1007.4
20260505063047 60 67 6.0 11.0 0.00 0.00 0.00 42 1007.5
20260505061551 60 36 5.0 5.0 0.00 0.00 0.00 42 1007.6
20260505060051 60 67 1.0 8.0 0.00 0.00 0.00 38 1007.6
20260505054552 61 52 4.0 9.0 0.00 0.00 0.00 38 1007.3
20260505053049 63 24 9.0 9.0 0.00 0.00 0.00 38 1007.2
20260505051551 63 310 3.0 5.0 0.00 0.00 0.00 37 1006.7
20260505041551 67 64 10.0 10.0 0.00 0.00 0.00 34 1004.7
20260505040059 68 78 2.0 11.0 0.00 0.00 0.00 34 1005.3
20260505034608 69 322 8.0 15.0 0.00 0.00 0.00 34 1004.6
20260505033049 69 110 2.0 9.0 0.00 0.00 0.00 34 1004.5
20260505031550 70 328 5.0 6.0 0.00 0.00 0.00 34 1004.0
20260505030059 72 83 6.0 11.0 0.00 0.00 0.00 37 1003.4
20260505024612 72 99 6.0 9.0 0.00 0.00 0.00 37 1002.8
20260505023050 73 108 4.0 6.0 0.00 0.00 0.00 37 1002.6
20260505021550 73 109 1.0 6.0 0.00 0.00 0.00 55 1002.4
20260505020104 72 320 0.0 5.0 0.00 0.00 0.00 55 1002.1
20260505014550 72 0 0.0 0.0 0.00 0.00 0.00 55 1001.5
20260505013054 74 0 0.0 0.0 0.00 0.00 0.00 47 1001.3
20260505011550 77 0 0.0 0.0 0.00 0.00 0.00 47 1001.0
20260505010109 77 0 0.0 1.0 0.00 0.00 0.00 47 1000.9
20260505004602 78 0 0.0 0.0 0.00 0.00 0.00 39 1000.7
20260505003052 80 0 0.0 2.0 0.00 0.00 0.00 39 1000.8
20260505001548 81 0 0.0 0.0 0.00 0.00 0.00 39 1000.7
20260505000104 81 146 0.0 1.0 0.00 0.00 0.00 36 1000.9
20260504234548 82 215 0.0 2.0 0.00 0.00 0.00 36 1000.9
20260504233055 83 227 0.0 2.0 0.00 0.00 0.00 36 1000.9
20260504231619 85 136 2.0 3.0 0.00 0.00 0.00 30 1000.8
20260504230056 85 196 2.0 2.0 0.00 0.00 0.00 30 1000.7
20260504224552 87 252 1.0 2.0 0.00 0.00 0.00 25 1000.6
20260504223051 85 232 0.0 0.0 0.00 0.00 0.00 25 1000.5
20260504221631 85 0 0.0 1.0 0.00 0.00 0.00 25 1000.4
20260504220058 85 87 0.0 2.0 0.00 0.00 0.00 27 1000.6
20260504214551 86 15 1.0 2.0 0.00 0.00 0.00 27 1000.7
20260504213054 86 22 0.0 2.0 0.00 0.00 0.00 27 1000.9
20260504211553 86 308 1.0 1.0 0.00 0.00 0.00 29 1000.8
20260504210052 86 286 3.0 4.0 0.00 0.00 0.00 29 1001.1
20260504204555 85 225 2.0 3.0 0.00 0.00 0.00 29 1001.3
20260504203050 85 267 2.0 3.0 0.00 0.00 0.00 25 1001.5
20260504201556 85 238 1.0 2.0 0.00 0.00 0.00 25 1001.6
20260504200053 85 127 1.0 2.0 0.00 0.00 0.00 25 1001.6
20260504194601 86 288 3.0 7.0 0.00 0.00 0.00 25 1001.8
20260504193050 86 244 3.0 3.0 0.00 0.00 0.00 25 1001.9
20260504191610 85 227 1.0 4.0 0.00 0.00 0.00 25 1001.8
20260504190048 85 223 4.0 4.0 0.00 0.00 0.00 29 1001.9
20260504184556 84 296 1.0 2.0 0.00 0.00 0.00 29 1001.9
20260504183049 84 293 2.0 3.0 0.00 0.00 0.00 29 1002.0
20260504181552 82 279 3.0 3.0 0.00 0.00 0.00 32 1001.9
20260504180049 82 207 2.0 4.0 0.00 0.00 0.00 32 1001.9
20260504174551 82 269 2.0 3.0 0.00 0.00 0.00 32 1002.1
20260504173055 81 238 1.0 4.0 0.00 0.00 0.00 42 1002.1
20260504171548 79 244 0.0 4.0 0.00 0.00 0.00 42 1002.2
20260504140104 67 267 8.0 9.0 0.00 0.00 0.00 60 1002.9